TimeCDT,TemperatureF,Dew PointF,Humidity,Sea Level PressureIn,VisibilityMPH,Wind Direction,Wind SpeedMPH,Gust SpeedMPH,PrecipitationIn,Events,Conditions,WindDirDegrees,DateUTC
12:15 AM,53.6,46.4,77,30.22,10.0,SSE,5.8,-,N/A,,Clear,150,2013-05-24 05:15:00
12:35 AM,53.6,46.4,77,30.22,10.0,SSE,4.6,-,N/A,,Clear,160,2013-05-24 05:35:00
12:55 AM,53.6,48.2,82,30.23,10.0,SSE,5.8,-,N/A,,Clear,150,2013-05-24 05:55:00
1:15 AM,50.0,46.4,87,30.22,10.0,SE,6.9,-,N/A,,Clear,140,2013-05-24 06:15:00
1:35 AM,50.0,46.4,87,30.20,10.0,East,6.9,-,N/A,,Clear,100,2013-05-24 06:35:00
1:55 AM,50.0,46.4,87,30.20,10.0,ESE,6.9,-,N/A,,Clear,120,2013-05-24 06:55:00
2:15 AM,51.8,48.2,88,30.21,10.0,SE,8.1,-,N/A,,Clear,130,2013-05-24 07:15:00
2:35 AM,53.6,48.2,82,30.21,10.0,SSE,8.1,-,N/A,,Clear,150,2013-05-24 07:35:00
2:55 AM,51.8,48.2,88,30.22,10.0,SSE,6.9,-,N/A,,Clear,160,2013-05-24 07:55:00
3:15 AM,50.0,48.2,94,30.23,10.0,SSE,5.8,-,N/A,,Clear,160,2013-05-24 08:15:00
3:35 AM,51.8,48.2,88,30.23,10.0,South,5.8,-,N/A,,Clear,170,2013-05-24 08:35:00
3:55 AM,51.8,48.2,88,30.24,10.0,SSE,5.8,-,N/A,,Mostly Cloudy,160,2013-05-24 08:55:00
4:15 AM,53.6,48.2,82,30.24,10.0,South,5.8,-,N/A,,Overcast,170,2013-05-24 09:15:00
4:35 AM,53.6,50.0,88,30.24,10.0,South,8.1,-,N/A,,Overcast,170,2013-05-24 09:35:00
4:55 AM,53.6,50.0,88,30.24,10.0,SSE,6.9,-,N/A,,Overcast,160,2013-05-24 09:55:00
5:15 AM,53.6,50.0,88,30.24,10.0,SSE,9.2,-,N/A,,Overcast,160,2013-05-24 10:15:00
5:35 AM,53.6,50.0,88,30.24,10.0,South,9.2,-,N/A,,Mostly Cloudy,170,2013-05-24 10:35:00
5:55 AM,53.6,50.0,88,30.24,10.0,SSE,8.1,-,N/A,,Mostly Cloudy,160,2013-05-24 10:55:00
6:15 AM,53.6,50.0,88,30.24,10.0,SSE,10.4,-,N/A,,Scattered Clouds,160,2013-05-24 11:15:00
6:35 AM,53.6,50.0,88,30.24,10.0,SSE,12.7,-,N/A,,Mostly Cloudy,160,2013-05-24 11:35:00
6:55 AM,53.6,50.0,88,30.25,10.0,South,12.7,-,N/A,,Overcast,170,2013-05-24 11:55:00
7:15 AM,55.4,50.0,82,30.24,10.0,SSE,15.0,18.4,N/A,,Overcast,160,2013-05-24 12:15:00
7:35 AM,55.4,48.2,77,30.25,10.0,South,16.1,20.7,N/A,,Overcast,170,2013-05-24 12:35:00
7:55 AM,55.4,48.2,77,30.25,10.0,SSE,17.3,21.9,N/A,,Overcast,160,2013-05-24 12:55:00
8:15 AM,57.2,48.2,72,30.25,10.0,SSE,18.4,24.2,N/A,,Overcast,160,2013-05-24 13:15:00
8:35 AM,57.2,48.2,72,30.24,10.0,SSE,19.6,24.2,N/A,,Mostly Cloudy,150,2013-05-24 13:35:00
8:55 AM,59.0,46.4,63,30.23,10.0,SSE,21.9,25.3,N/A,,Mostly Cloudy,160,2013-05-24 13:55:00
9:15 AM,60.8,46.4,59,30.23,10.0,SSE,20.7,26.5,N/A,,Mostly Cloudy,160,2013-05-24 14:15:00
9:35 AM,60.8,46.4,59,30.22,10.0,SSE,27.6,32.2,N/A,,Scattered Clouds,150,2013-05-24 14:35:00
9:55 AM,62.6,46.4,55,30.21,10.0,SSE,27.6,32.2,N/A,,Clear,150,2013-05-24 14:55:00
10:15 AM,64.4,46.4,52,30.22,10.0,SSE,21.9,26.5,N/A,,Partly Cloudy,150,2013-05-24 15:15:00
10:35 AM,64.4,46.4,52,30.22,10.0,SSE,20.7,31.1,N/A,,Mostly Cloudy,160,2013-05-24 15:35:00
10:55 AM,64.4,48.2,56,30.23,10.0,South,23.0,27.6,N/A,,Mostly Cloudy,170,2013-05-24 15:55:00
11:15 AM,64.4,48.2,56,30.23,10.0,South,18.4,26.5,N/A,,Overcast,170,2013-05-24 16:15:00
11:35 AM,64.4,50.0,59,30.22,10.0,SSE,18.4,24.2,N/A,,Overcast,160,2013-05-24 16:35:00
11:55 AM,64.4,50.0,59,30.22,10.0,SSE,16.1,-,N/A,,Overcast,160,2013-05-24 16:55:00
12:15 PM,64.4,50.0,59,30.21,10.0,SSE,13.8,-,N/A,,Overcast,150,2013-05-24 17:15:00
12:35 PM,64.4,50.0,59,30.21,10.0,South,17.3,23.0,N/A,,Overcast,170,2013-05-24 17:35:00
12:55 PM,66.2,50.0,56,30.20,10.0,South,19.6,25.3,N/A,,Mostly Cloudy,170,2013-05-24 17:55:00
1:15 PM,66.2,50.0,56,30.19,10.0,SSE,17.3,24.2,N/A,,Overcast,160,2013-05-24 18:15:00
1:35 PM,68.0,51.8,56,30.18,10.0,SSE,16.1,24.2,N/A,,Mostly Cloudy,160,2013-05-24 18:35:00
1:55 PM,69.8,51.8,53,30.16,10.0,SSE,18.4,25.3,N/A,,Mostly Cloudy,160,2013-05-24 18:55:00
2:15 PM,71.6,53.6,53,30.15,10.0,SSE,21.9,25.3,N/A,,Scattered Clouds,150,2013-05-24 19:15:00
2:35 PM,71.6,53.6,53,30.13,10.0,SSE,21.9,27.6,N/A,,Clear,150,2013-05-24 19:35:00
2:55 PM,73.4,53.6,50,30.12,10.0,SSE,24.2,32.2,N/A,,Clear,150,2013-05-24 19:55:00
3:15 PM,73.4,53.6,50,30.11,10.0,SSE,27.6,31.1,N/A,,Clear,150,2013-05-24 20:15:00
3:35 PM,73.4,53.6,50,30.10,10.0,SSE,23.0,32.2,N/A,,Clear,160,2013-05-24 20:35:00
3:55 PM,73.4,53.6,50,30.09,10.0,SSE,24.2,33.4,N/A,,Clear,160,2013-05-24 20:55:00
4:15 PM,75.2,53.6,47,30.08,10.0,SSE,24.2,32.2,N/A,,Clear,160,2013-05-24 21:15:00
4:35 PM,75.2,53.6,47,30.08,10.0,South,21.9,28.8,N/A,,Clear,170,2013-05-24 21:35:00
4:55 PM,75.2,55.4,50,30.06,10.0,South,24.2,32.2,N/A,,Clear,170,2013-05-24 21:55:00
5:15 PM,73.4,53.6,50,30.04,10.0,South,24.2,34.5,N/A,,Clear,170,2013-05-24 22:15:00
5:35 PM,71.6,53.6,53,30.02,10.0,SSE,25.3,32.2,N/A,,Clear,160,2013-05-24 22:35:00
5:55 PM,71.6,53.6,53,30.00,10.0,South,24.2,40.3,N/A,,Clear,170,2013-05-24 22:55:00
6:15 PM,71.6,55.4,57,30.01,10.0,SSE,18.4,27.6,N/A,,Clear,160,2013-05-24 23:15:00
6:35 PM,71.6,55.4,57,30.01,10.0,South,25.3,-,N/A,,Clear,170,2013-05-24 23:35:00
6:55 PM,71.6,55.4,57,29.99,10.0,SSE,18.4,25.3,N/A,,Clear,160,2013-05-24 23:55:00
7:15 PM,71.6,55.4,57,30.01,10.0,South,8.1,-,N/A,,Clear,170,2013-05-25 00:15:00
7:35 PM,71.6,57.2,60,30.03,10.0,Calm,Calm,-,N/A,Rain,Light Rain,0,2013-05-25 00:35:00
7:55 PM,71.6,59.0,64,30.03,10.0,SSW,11.5,19.6,N/A,,Overcast,200,2013-05-25 00:55:00
8:15 PM,69.8,59.0,68,30.03,10.0,South,11.5,-,N/A,,Overcast,170,2013-05-25 01:15:00
8:35 PM,69.8,57.2,64,30.03,10.0,South,11.5,-,N/A,,Overcast,170,2013-05-25 01:35:00
8:55 PM,69.8,57.2,64,30.04,10.0,South,9.2,-,N/A,,Overcast,170,2013-05-25 01:55:00
9:15 PM,69.8,57.2,64,30.03,10.0,SSE,12.7,17.3,N/A,,Overcast,160,2013-05-25 02:15:00
9:35 PM,68.0,57.2,68,30.04,10.0,SSE,12.7,-,N/A,,Overcast,160,2013-05-25 02:35:00
9:55 PM,68.0,57.2,68,30.04,10.0,SSE,11.5,-,N/A,,Overcast,150,2013-05-25 02:55:00
10:15 PM,68.0,57.2,68,30.06,10.0,SSE,8.1,-,N/A,,Overcast,150,2013-05-25 03:15:00
10:35 PM,68.0,59.0,73,30.07,10.0,SE,8.1,-,N/A,,Overcast,140,2013-05-25 03:35:00
10:55 PM,68.0,59.0,73,30.08,10.0,SSE,8.1,-,N/A,,Overcast,150,2013-05-25 03:55:00
11:15 PM,68.0,59.0,73,30.07,10.0,SE,9.2,-,N/A,,Overcast,140,2013-05-25 04:15:00
11:35 PM,66.2,59.0,78,30.06,10.0,SE,10.4,-,N/A,,Overcast,130,2013-05-25 04:35:00
11:55 PM,66.2,57.2,73,30.04,10.0,SE,15.0,-,N/A,,Overcast,140,2013-05-25 04:55:00